Wind_Speed
27 25 25 24 22 20 16 14 12 5 4 7 8 7 8 9 9 8 10 17 19 16 14 15 16 16 14 17 23 25 23 22 22 22 23 23 23 23 21 21 20 19 19 20 20 19 19 18 18 17 17 16 15 14 14 12 11 11 12 12 11 11 13 12 12 13 13 13 12 11 10 10 9 8 8 9 9 9 9 10 10 9 9 9 11 12
27 25 26 25 21 16 12 12 11 5 4 8 9 8 10 9 7 6 9 15 18 16 14 14 15 15 13 14 20 24 24 25 24 23 23 23 22 22 22 21 20 20 21 22 21 20 20 19 18 18 17 16 15 14 13 12 12 11 12 13 12 12 13 13 12 12 12 12 11 12 11 10 9 9 9 9 9 9 9 10 10 10 9 10 11 11
28 29 27 23 19 14 13 14 10 6 7 9 8 9 11 10 7 6 9 14 17 17 16 15 16 15 14 13 16 21 24 24 25 24 23 22 22 22 22 22 22 22 22 22 22 21 20 20 19 18 17 16 16 14 13 12 12 12 12 13 13 12 13 12 12 11 11 10 9 10 10 10 9 9 9 9 9 9 9 10 10 10 10 10 11 11
28 29 27 21 18 15 15 15 12 10 11 9 8 10 11 9 7 7 9 13 16 17 17 17 16 15 15 15 15 19 23 24 25 25 24 22 22 21 20 20 21 23 23 22 22 21 21 20 19 18 17 17 17 15 14 13 12 12 12 12 13 13 12 12 11 11 10 9 9 8 8 9 9 9 9 9 9 9 9 9 10 10 10 11 11 11
27 25 25 21 18 16 16 16 15 13 11 10 8 9 10 10 8 9 10 12 15 16 18 18 16 16 18 17 18 20 23 25 25 25 25 24 22 21 19 20 20 22 22 22 22 21 21 21 19 19 18 17 16 15 14 13 12 11 11 12 13 13 12 11 10 10 10 9 9 9 9 8 8 9 9 9 9 9 9 9 9 10 10 10 11 11
23 20 23 23 19 17 17 18 18 15 12 11 9 7 9 10 10 11 10 10 12 14 17 18 14 15 21 19 18 21 22 24 26 25 26 25 24 24 22 21 21 22 23 22 22 21 21 21 20 19 18 17 16 15 14 14 13 12 12 12 12 13 12 10 10 10 10 9 9 10 10 10 9 9 9 8 8 8 8 8 8 9 10 9 9 10
22 18 20 24 22 19 18 20 19 16 13 11 9 7 7 9 10 12 13 10 10 10 13 18 14 9 19 23 20 20 22 25 27 25 26 26 25 25 23 21 22 24 24 23 23 22 22 21 20 19 18 17 16 15 15 15 14 13 12 12 12 12 12 10 10 10 10 10 9 9 10 10 10 10 9 8 7 7 8 8 8 8 9 9 8 9
23 20 17 21 24 23 21 21 20 18 15 11 9 8 5 6 6 9 13 12 10 7 7 17 17 6 12 22 22 21 23 26 29 27 26 27 25 24 23 22 24 25 24 24 24 23 23 21 19 17 16 16 16 15 15 15 14 13 12 11 12 13 12 11 11 10 10 10 9 9 8 9 9 9 9 9 8 8 7 7 7 7 7 8 8 8
23 22 17 17 21 26 27 23 20 18 16 13 10 8 6 4 4 6 11 13 12 9 7 15 19 6 4 15 22 23 25 27 30 29 27 27 26 24 23 23 24 25 25 25 24 24 23 20 18 16 14 15 15 15 15 15 15 14 12 11 11 12 12 12 11 11 10 10 10 10 8 8 9 8 8 8 8 8 8 7 7 6 6 7 7 7
18 19 19 17 18 23 27 25 22 19 19 16 9 6 6 6 7 8 8 11 11 8 8 16 19 9 3 14 25 27 29 30 31 30 27 26 27 26 25 24 24 24 25 25 24 23 21 19 17 16 14 14 15 15 15 16 16 15 13 11 10 11 12 13 13 12 11 10 10 10 8 8 9 8 8 7 7 7 7 7 6 6 6 6 7 7
15 15 18 20 18 19 22 24 24 21 20 17 10 6 7 7 9 8 7 9 8 5 6 12 19 14 6 14 29 33 30 27 28 31 29 27 27 28 26 25 24 23 23 24 24 23 21 19 18 17 15 15 16 16 16 16 16 16 15 12 10 10 11 13 14 13 12 11 10 9 8 8 9 9 8 8 7 7 7 7 6 5 6 6 7 7
19 16 16 19 19 17 17 20 21 20 20 18 14 11 9 7 7 5 6 8 6 2 1 4 16 19 9 10 24 33 29 23 23 29 30 28 27 28 27 26 24 22 21 23 24 23 22 21 20 18 17 17 17 17 17 17 16 16 16 14 11 10 10 12 14 14 13 12 11 10 8 8 9 10 9 9 8 8 8 7 6 6 6 7 7 7
20 21 18 17 20 20 17 17 17 17 18 17 16 15 9 6 5 3 3 4 4 4 1 1 9 16 13 11 15 21 24 23 24 25 27 28 27 27 27 26 25 23 21 23 24 24 23 22 21 19 18 18 18 17 17 17 17 16 16 14 12 11 10 11 13 14 13 12 11 10 9 9 10 10 10 10 10 9 9 8 8 7 8 8 8 9
13 18 21 19 21 22 20 18 19 18 18 18 18 18 11 5 4 2 2 2 4 6 7 5 6 8 10 13 13 14 15 20 25 25 25 27 27 27 26 25 25 24 22 23 25 24 23 21 20 20 19 18 18 17 17 17 17 16 15 15 13 11 11 11 13 14 14 13 12 11 10 10 10 11 11 10 10 10 10 9 9 9 9 9 10 10
8 12 20 22 22 23 24 21 19 17 18 19 19 17 14 10 5 3 5 4 1 3 4 5 6 5 6 9 11 12 12 15 24 29 28 27 28 28 26 25 24 24 23 24 25 24 22 20 19 19 18 17 17 17 16 16 17 16 15 15 13 12 11 11 12 13 14 13 13 12 11 10 11 12 12 11 10 10 11 10 10 9 9 9 10 10
7 7 13 21 21 21 24 22 17 15 16 20 21 18 16 15 9 3 4 5 3 6 6 7 6 6 8 9 9 9 9 12 21 31 33 30 28 29 29 27 25 25 24 24 24 23 22 21 20 19 18 17 18 17 16 15 15 16 15 15 14 13 12 12 12 13 14 14 14 12 11 11 11 12 12 12 11 11 11 11 10 10 9 9 9 9
6 6 8 17 22 19 19 23 20 16 17 20 22 20 18 17 13 6 2 5 5 4 5 8 7 7 7 8 9 9 10 11 19 29 34 33 30 29 31 30 27 26 25 24 23 22 22 21 20 20 20 18 18 17 16 15 14 14 14 15 14 14 13 13 13 13 14 15 15 14 13 12 12 12 12 12 11 11 11 11 11 10 9 9 9 9
6 7 8 14 21 20 16 19 21 18 17 20 23 24 20 16 15 10 3 4 5 3 3 7 8 8 7 6 7 9 10 12 19 27 33 35 34 31 31 32 30 27 26 24 23 22 21 21 20 21 21 19 18 16 15 14 13 13 13 14 15 15 14 14 14 14 14 15 15 15 14 14 14 14 13 13 13 12 12 12 12 11 10 10 10 10
5 7 7 10 18 22 19 17 19 21 21 20 22 25 21 13 12 12 6 3 5 3 1 4 6 9 13 12 10 8 8 13 19 25 31 36 37 34 31 31 31 29 27 25 25 24 23 21 21 22 22 21 19 17 16 15 14 13 13 13 15 15 16 16 16 15 15 15 15 15 16 16 15 15 15 15 14 13 12 12 12 12 11 11 11 11
5 5 5 8 14 21 23 22 22 24 25 20 17 23 25 15 11 13 10 6 6 3 2 3 2 7 15 17 14 10 8 10 16 23 30 34 36 35 31 31 31 30 29 27 26 26 24 22 22 23 23 22 20 19 18 17 15 14 12 13 13 15 16 17 17 17 16 16 15 15 16 16 16 16 16 16 15 14 14 13 13 13 12 12 12 12
6 6 4 5 11 17 21 24 24 23 26 25 20 24 28 20 12 13 12 8 6 3 2 2 1 6 13 16 16 14 10 9 12 18 25 30 33 34 32 31 30 30 30 29 28 27 26 24 23 24 24 23 22 21 20 19 17 15 14 13 12 14 16 17 17 18 18 17 17 16 16 16 17 17 18 18 17 16 15 14 14 14 13 13 13 13
5 7 6 4 9 14 17 21 23 21 23 26 25 26 28 23 16 12 8 8 7 3 3 3 2 4 10 14 16 15 12 10 12 15 19 25 29 31 32 32 31 30 30 30 30 28 27 26 25 25 25 24 24 23 23 21 19 18 16 14 13 14 15 16 17 18 18 18 18 18 17 17 17 18 19 19 18 18 16 15 15 15 14 14 14 14
3 5 6 4 8 13 15 18 20 19 21 26 27 27 26 26 23 16 9 9 10 6 4 3 2 4 7 10 14 16 14 13 13 13 14 18 23 27 29 30 31 30 29 29 30 29 28 27 27 26 27 27 25 24 23 23 22 20 18 17 15 14 15 16 17 17 19 19 19 19 19 19 19 19 19 19 19 19 18 17 16 16 15 15 15 15
2 3 4 3 7 11 13 16 19 19 21 25 28 28 27 28 28 21 14 12 13 11 8 4 2 6 8 9 12 15 16 15 13 13 13 14 17 20 24 27 29 31 30 28 27 27 27 28 28 27 28 28 28 26 25 24 24 23 21 19 18 16 15 16 17 18 19 19 19 20 20 20 20 20 20 19 20 20 20 19 18 17 17 16 16 16
1 2 4 6 6 8 10 12 15 18 21 24 27 28 27 28 29 24 17 14 14 16 15 8 3 7 9 9 11 15 17 16 16 16 16 16 15 15 18 21 24 28 32 30 27 26 26 27 28 28 28 28 28 27 27 26 26 25 23 22 21 20 19 19 19 19 20 21 21 21 21 21 21 21 21 21 21 21 22 22 21 20 19 18 17 17
1 0 4 6 6 6 6 8 11 14 17 19 23 26 27 27 27 22 17 14 12 14 17 12 6 7 9 9 10 15 18 18 18 19 18 17 15 14 15 18 21 24 28 28 27 27 26 26 28 28 27 26 27 27 27 27 28 28 26 25 25 24 24 23 23 22 22 22 23 23 23 22 22 22 22 22 23 22 22 23 23 22 22 21 20 19
2 2 3 5 6 6 7 10 14 15 15 15 18 23 25 27 25 20 17 16 12 12 15 16 14 11 9 8 8 13 17 19 19 20 20 18 16 16 16 18 20 22 23 25 26 27 27 26 26 25 24 25 27 27 26 27 30 31 30 28 28 27 28 27 25 25 24 24 24 24 24 24 23 23 23 23 23 23 23 23 23 23 23 23 22 21
6 7 6 6 7 6 7 12 16 16 15 15 17 20 22 24 24 22 19 17 15 12 13 16 17 16 13 10 8 10 15 19 20 20 20 18 16 16 16 17 18 19 20 22 24 25 25 25 25 24 24 25 25 25 25 25 28 31 31 30 30 30 30 28 26 24 24 24 24 24 24 24 24 24 24 23 23 23 22 22 22 23 23 24 24 24
7 10 11 10 8 6 6 9 12 14 15 15 18 19 19 18 20 21 20 19 17 16 14 14 15 16 15 12 9 9 12 16 19 20 19 18 16 14 13 14 17 18 19 20 20 21 22 22 24 24 24 23 23 24 24 24 25 28 30 31 31 31 31 29 26 24 25 26 27 26 25 25 25 25 25 24 24 23 23 23 23 22 22 23 24 24
8 10 12 12 11 8 5 6 8 10 12 14 17 19 18 17 17 19 18 16 16 17 17 16 14 14 13 11 9 9 10 12 17 20 20 19 16 14 12 12 14 16 17 18 17 17 17 18 19 20 20 20 21 24 25 25 25 26 27 28 29 30 30 28 26 27 27 27 27 27 27 26 26 26 25 25 24 24 24 23 23 23 23 23 23 23
8 9 10 11 11 9 8 7 5 6 7 11 14 17 18 17 16 16 15 13 13 14 15 16 15 14 14 12 8 9 10 12 17 20 20 19 17 15 13 13 13 13 14 15 15 14 14 15 15 17 18 20 21 23 24 23 24 25 26 26 27 29 28 25 25 27 26 24 24 25 26 27 27 27 26 25 25 25 25 25 25 24 24 23 23 23
10 9 8 8 8 7 7 7 6 6 6 8 10 12 14 15 15 15 14 13 12 12 13 15 16 15 15 13 12 11 12 13 17 20 20 19 17 16 14 13 13 14 14 14 15 15 15 15 15 16 18 20 21 22 22 23 24 25 24 25 26 25 23 22 23 26 25 24 23 23 25 27 28 29 28 27 27 27 27 26 26 26 25 24 24 25
11 11 9 8 6 4 5 6 4 5 5 4 3 4 7 10 11 12 14 15 14 13 13 14 15 15 15 15 16 14 14 16 18 19 18 17 17 16 15 14 14 14 14 15 16 17 17 15 16 17 18 19 20 21 22 23 24 23 22 24 25 23 21 22 24 25 24 23 23 23 24 26 27 28 28 28 29 30 29 28 27 26 25 25 26 26
11 12 11 11 8 6 7 6 2 2 2 1 2 1 1 5 7 8 11 14 15 15 13 12 12 13 14 15 18 17 17 18 18 18 18 17 16 16 15 15 15 15 16 15 15 17 19 17 16 18 19 20 21 23 24 22 21 21 22 24 24 21 20 19 19 20 20 19 20 21 21 22 24 25 27 27 28 30 30 30 29 27 26 26 26 26
8 11 12 13 11 9 10 9 2 1 1 2 3 1 0 2 5 6 8 12 14 13 14 14 13 13 13 15 17 18 19 21 21 21 21 19 17 15 15 15 15 15 16 15 13 16 18 18 16 16 19 21 21 22 22 20 20 21 21 21 20 19 18 15 12 14 15 15 16 17 17 18 20 21 22 23 24 26 28 29 29 28 27 27 26 26
7 10 11 12 11 8 9 9 5 2 3 3 3 1 1 2 3 5 6 9 10 11 12 14 15 15 15 15 17 18 21 24 25 24 22 20 17 15 13 13 13 13 14 14 13 14 16 16 16 14 15 18 19 18 17 17 18 18 17 16 17 16 16 14 11 12 14 12 12 13 13 15 16 17 18 19 20 22 24 26 27 27 27 26 26 25
8 9 10 10 9 8 9 8 5 6 6 5 5 4 2 2 2 3 4 6 8 9 10 11 12 14 15 16 19 21 23 25 26 25 22 19 17 16 14 15 17 18 17 16 15 14 15 16 17 14 12 12 13 13 15 15 15 15 15 15 14 13 14 14 13 13 14 13 12 12 12 13 15 16 17 17 18 20 21 21 22 22 23 23 24 25
7 9 9 8 8 10 10 7 5 5 4 4 6 6 4 3 1 1 3 5 6 8 8 9 10 11 13 17 21 23 25 28 28 26 23 20 18 17 17 18 21 21 20 17 15 14 15 16 16 14 12 10 9 11 15 15 14 13 13 13 13 12 13 14 14 14 15 14 14 14 13 13 14 15 15 15 15 16 17 17 18 19 20 21 22 24
6 9 9 8 8 11 11 6 4 4 4 3 3 3 3 3 3 1 3 4 5 7 8 8 9 9 12 17 20 22 26 29 29 27 24 21 19 19 19 20 21 22 20 18 16 15 16 16 15 12 9 8 8 12 16 17 15 14 13 12 10 10 11 12 13 13 13 14 14 14 14 14 14 14 14 15 15 15 15 16 17 19 21 22 23 25
4 7 7 8 7 9 11 8 4 4 4 3 2 2 2 2 2 2 2 4 4 4 6 7 7 6 11 15 18 22 26 27 27 25 23 22 20 20 20 19 19 20 19 18 16 14 14 14 12 9 7 7 8 11 14 16 15 14 13 12 11 11 12 12 11 10 11 12 13 13 13 13 13 14 15 16 16 16 16 16 17 19 21 22 23 24
3 4 4 5 5 5 7 7 5 4 5 6 5 3 2 1 1 2 3 5 5 4 5 7 6 4 9 13 17 21 22 21 22 21 19 19 18 17 17 17 18 18 16 15 13 12 11 11 9 8 8 9 9 10 11 13 13 12 12 12 13 13 13 13 12 11 11 12 12 13 13 13 13 14 15 15 15 15 15 15 15 16 17 17 18 19
3 3 3 3 3 2 3 4 4 4 5 8 9 9 8 5 2 3 5 6 7 6 5 6 6 5 8 13 17 20 21 20 20 20 19 17 13 11 12 15 16 16 16 15 14 13 11 10 10 10 9 9 9 8 9 9 9 9 9 9 10 10 10 11 11 11 11 11 12 12 12 12 12 13 13 13 13 13 12 12 12 12 11 11 11 12
4 3 3 3 3 3 3 3 2 2 2 5 7 11 14 14 10 8 8 8 9 8 7 8 8 7 7 12 17 20 20 19 19 18 17 15 11 10 11 14 15 15 16 15 14 14 13 12 11 10 9 8 8 7 7 7 8 8 8 8 8 8 7 8 8 9 9 10 10 10 10 10 11 11 11 12 12 11 11 11 10 10 9 9 9 10
4 3 3 3 3 2 3 3 2 2 2 1 2 3 7 12 15 16 13 10 9 10 9 9 8 8 9 11 16 19 18 18 18 17 16 18 20 18 17 18 18 17 17 16 15 14 14 13 12 10 8 7 6 5 6 6 8 9 10 10 10 10 9 9 8 9 9 9 9 10 10 11 11 12 12 12 12 12 12 12 12 12 12 12 12 13
2 3 3 3 3 3 3 3 3 2 2 2 2 1 0 4 10 15 17 14 11 9 10 10 8 8 10 12 17 20 19 17 16 16 16 18 20 19 17 17 19 20 18 18 17 15 13 12 10 8 7 6 6 6 6 7 8 9 11 12 13 14 14 13 13 12 12 12 12 12 13 13 14 14 15 16 16 16 16 15 16 16 16 17 17 17
1 2 2 2 2 3 2 2 2 1 1 2 1 1 0 1 3 7 12 16 15 12 10 10 10 8 9 14 20 23 22 19 18 17 17 17 17 16 15 13 15 17 16 15 15 14 12 10 8 8 7 7 7 7 8 9 10 11 12 13 14 16 16 17 17 17 17 16 16 16 16 16 16 17 18 18 19 19 19 19 20 21 21 21 22 22
2 3 2 2 2 2 2 2 2 1 1 1 3 3 2 2 3 3 4 10 15 16 14 12 11 11 11 15 21 22 23 23 22 21 20 18 17 17 15 12 12 13 13 14 14 13 11 9 8 8 7 7 6 7 8 9 10 11 13 14 15 16 17 18 19 20 21 21 21 21 20 20 20 20 20 21 21 22 22 23 23 24 25 26 26 26
4 4 3 3 3 2 2 2 2 2 2 3 3 4 4 4 5 4 4 4 8 13 15 15 14 12 12 15 20 24 27 29 29 28 25 23 22 21 18 14 14 15 14 14 15 14 12 11 11 10 9 8 8 9 10 11 12 13 14 14 15 16 17 18 19 20 21 22 23 24 24 24 24 24 24 24 24 25 25 26 26 27 28 29 29 29
6 5 5 4 4 4 4 5 5 5 5 5 5 6 6 7 6 6 6 6 6 7 10 13 13 13 13 14 17 23 27 28 27 26 23 22 24 24 19 14 13 15 16 17 16 15 14 13 12 12 11 10 11 13 14 15 15 16 16 16 16 16 16 17 17 18 19 20 22 23 25 25 26 26 27 27 27 27 27 27 28 29 30 30 31 31
8 8 8 7 6 6 7 7 7 7 7 7 7 7 8 8 8 7 7 7 7 7 8 10 10 12 13 14 15 19 20 18 16 15 14 12 11 11 11 11 9 11 17 20 18 15 13 12 12 13 13 13 14 16 17 18 19 19 19 19 18 18 18 18 18 18 18 19 20 21 22 23 24 25 26 27 27 27 27 27 27 28 29 30 31 31
11 11 11 10 10 10 10 9 9 9 9 9 10 10 10 10 10 9 9 8 9 9 9 10 11 12 13 14 14 15 15 13 12 12 11 9 7 6 7 8 8 10 15 18 15 11 10 11 13 15 16 16 17 18 20 21 22 22 22 22 21 21 20 20 20 20 20 20 20 20 21 22 22 23 24 24 25 26 26 26 26 26 27 28 30 30
Wind_Direction
181 185 189 187 186 191 195 189 184 178 196 208 201 198 207 204 212 228 205 184 180 180 189 200 206 207 204 200 195 188 184 184 182 179 181 186 188 189 189 188 184 181 184 186 185 181 174 170 167 164 162 160 159 156 151 149 150 151 150 146 142 138 134 131 129 133 135 132 131 132 135 137 140 146 150 150 148 149 149 146 145 140 133 134 139 142
186 193 191 185 187 193 187 184 190 193 189 194 198 196 197 201 210 222 200 182 182 185 193 204 208 210 213 210 205 199 193 191 190 186 183 186 188 189 190 189 185 184 190 192 188 185 179 173 170 167 165 161 160 158 154 150 148 151 153 148 146 146 144 141 138 139 142 139 136 137 139 142 144 146 152 154 153 153 151 149 149 147 141 141 144 145
192 198 191 185 190 190 179 183 188 178 170 179 198 198 190 197 204 210 199 182 185 195 199 205 206 208 214 214 211 207 202 198 196 191 185 185 188 188 188 188 186 189 193 193 191 188 183 177 172 170 166 163 163 161 161 156 150 151 154 152 152 153 151 149 144 141 143 140 135 135 136 139 141 142 148 152 155 154 152 150 150 148 145 145 146 147
195 199 189 186 194 188 180 187 189 178 177 186 204 205 199 203 209 210 201 186 192 203 204 206 209 211 214 213 208 206 205 202 200 195 188 186 187 187 187 186 189 194 194 193 192 191 187 181 175 171 168 167 166 165 164 159 153 153 154 156 158 158 157 156 148 140 139 136 129 123 121 126 132 136 141 146 152 154 151 149 148 147 146 148 150 150
197 198 190 188 192 188 184 191 197 193 199 214 218 221 220 212 204 204 205 198 197 206 210 205 203 211 217 215 209 205 203 201 201 197 190 186 184 185 188 188 192 198 197 194 193 192 191 184 176 172 170 170 169 168 166 160 157 158 157 161 164 164 163 158 150 143 139 135 126 118 115 119 126 132 138 143 148 152 152 149 145 145 146 148 152 153
200 199 193 192 193 191 190 196 203 206 218 232 232 232 222 209 208 210 211 206 195 204 215 205 193 206 215 218 215 209 205 201 202 201 194 188 185 186 188 188 192 197 196 194 193 193 190 184 178 174 171 171 170 171 171 166 164 164 165 166 167 169 167 156 149 146 141 138 134 132 131 132 133 134 136 139 143 148 150 149 144 144 147 149 152 155
201 200 196 198 200 197 197 200 206 212 223 237 237 225 208 199 210 221 218 205 191 203 217 207 198 197 206 214 219 213 209 204 201 200 195 191 189 188 187 186 190 195 193 191 192 192 188 184 180 175 172 171 171 174 175 170 169 169 170 170 170 172 171 160 151 146 141 142 148 151 146 141 139 137 135 133 135 140 146 149 148 145 148 152 154 156
203 199 197 202 205 207 207 204 204 211 222 234 235 227 224 208 206 223 219 209 206 212 207 203 206 195 193 210 219 216 213 208 202 198 193 192 192 189 185 182 186 191 191 191 193 192 186 184 180 174 172 174 175 178 177 174 172 172 175 175 174 175 174 167 158 150 147 150 157 163 157 144 138 137 136 135 134 138 143 147 150 148 149 155 157 159
209 204 202 203 209 214 215 210 205 210 221 230 237 238 237 222 211 215 216 217 221 218 190 193 204 207 194 215 221 219 217 212 204 197 191 192 191 185 179 175 177 184 188 190 191 191 186 182 176 169 170 176 181 182 181 180 176 174 179 180 180 178 173 171 166 159 156 160 163 167 163 144 133 131 133 133 133 135 138 142 146 150 153 160 165 166
212 209 209 210 216 219 218 218 215 218 227 228 231 231 207 196 201 202 215 224 221 220 206 194 195 193 207 216 216 217 219 216 207 198 193 192 188 181 173 167 168 174 181 185 185 184 181 176 170 163 164 175 184 188 187 186 181 176 179 182 183 182 176 172 171 168 165 167 169 170 165 145 134 130 127 125 126 129 131 135 141 150 159 168 173 174
212 207 210 212 217 218 218 223 223 224 230 224 211 180 157 173 199 201 214 219 212 228 238 210 200 198 204 210 210 213 215 213 209 203 197 193 188 183 175 168 167 167 171 177 176 174 169 165 163 161 164 173 184 191 192 191 185 178 177 182 186 186 181 176 174 174 172 171 175 176 167 151 140 134 128 126 127 131 130 131 136 149 163 173 178 179
216 211 211 210 212 212 211 216 218 221 223 219 211 187 146 150 183 183 199 208 210 220 298 222 206 204 212 210 208 214 216 212 213 209 202 198 193 186 180 174 170 167 167 170 168 165 162 161 163 164 168 174 181 190 195 195 190 181 178 181 185 188 185 180 177 178 177 175 178 179 172 160 149 143 140 138 139 140 137 136 140 150 163 172 179 181
222 221 217 209 208 208 204 206 206 207 212 212 202 187 158 142 169 163 184 215 243 235 264 308 196 200 220 222 205 213 219 219 222 216 207 206 201 193 188 180 173 169 169 169 166 164 164 164 165 167 172 176 179 186 193 197 194 185 181 181 183 186 186 185 182 181 181 179 180 179 175 168 160 154 150 148 148 147 144 145 148 157 167 174 179 183
223 224 222 213 209 205 200 203 200 190 193 197 188 180 172 156 166 181 200 253 261 238 252 256 196 199 229 229 219 222 229 226 223 217 209 208 206 202 196 188 180 174 171 171 170 168 167 166 167 169 175 180 181 183 188 196 197 191 186 183 182 185 186 188 188 186 185 185 184 182 178 174 170 165 159 156 156 154 152 153 156 161 170 177 182 184
212 218 219 213 211 207 202 205 208 200 195 195 195 193 188 182 178 176 201 227 174 149 185 191 188 208 216 217 227 231 233 227 217 211 207 207 206 205 204 198 189 182 176 174 174 172 168 166 169 172 175 181 184 182 186 194 198 195 190 186 184 185 186 188 192 192 191 191 190 187 183 180 180 175 169 165 164 162 162 163 163 166 172 177 181 182
219 227 219 211 210 209 205 205 209 208 203 203 204 203 197 198 209 223 211 209 145 119 147 174 203 234 219 218 233 233 231 223 211 207 206 207 204 202 206 205 198 190 182 179 178 175 170 168 171 173 174 180 185 185 186 191 196 197 195 191 188 187 187 189 192 194 196 197 197 194 189 186 188 186 179 175 174 173 174 172 173 176 177 177 176 177
225 222 205 205 209 209 207 208 207 202 201 202 201 200 201 208 220 233 196 170 168 167 177 192 226 248 238 240 240 235 236 222 209 204 203 205 205 203 205 206 203 198 189 184 182 178 174 173 174 175 174 177 185 187 187 186 187 192 195 196 194 193 193 193 194 196 198 201 200 199 195 191 192 194 190 187 185 186 185 180 180 184 182 179 177 177
241 222 191 193 203 203 200 205 211 213 212 205 203 205 204 209 222 224 183 149 188 221 194 200 231 243 236 246 239 232 230 214 205 202 200 203 205 206 206 205 205 204 197 192 187 184 182 179 177 178 176 175 180 185 187 184 181 183 191 197 199 199 198 198 199 199 200 202 201 201 199 195 194 196 197 197 194 194 194 189 186 188 187 184 183 182
246 235 205 189 198 200 198 200 205 213 219 216 215 216 209 203 211 204 190 188 200 210 189 198 234 239 231 237 246 250 233 209 201 199 199 202 205 206 207 207 208 207 204 200 196 192 189 184 181 182 180 178 178 181 185 185 183 183 190 197 201 202 202 202 202 202 202 203 204 203 202 200 199 199 200 201 199 199 201 199 194 193 193 191 188 187
229 233 211 193 197 198 200 203 202 206 212 213 219 221 213 208 203 193 196 210 199 194 197 185 223 240 234 235 241 253 246 213 200 199 200 202 203 206 210 212 211 210 209 207 204 202 197 192 187 186 184 183 181 181 185 188 188 188 193 199 202 205 207 207 206 205 204 204 206 207 206 205 204 204 204 203 202 201 204 206 202 199 199 197 196 195
226 225 217 194 197 197 199 206 207 206 206 202 204 210 208 205 201 194 197 202 194 178 177 188 218 235 233 230 228 238 244 220 200 199 202 204 205 209 215 217 216 214 213 211 210 209 207 203 197 191 189 188 186 185 187 190 192 194 200 205 205 207 209 211 211 210 207 205 206 208 210 210 209 209 210 208 206 204 205 207 207 207 205 202 203 204
230 224 231 217 197 197 201 207 210 211 208 202 204 207 205 199 194 194 197 196 195 182 166 194 257 246 235 228 221 225 232 219 201 195 201 208 210 212 216 220 221 221 219 216 216 215 215 214 209 201 197 194 193 192 191 193 196 199 205 211 213 212 211 212 213 213 212 209 207 208 210 212 212 212 213 213 211 208 208 209 210 212 211 209 209 209
236 224 241 241 200 196 201 205 204 206 209 207 209 211 209 207 204 204 201 188 191 204 201 196 254 260 246 231 221 220 221 216 204 192 195 206 212 215 218 223 226 226 223 220 219 220 221 220 216 211 207 202 200 198 197 197 199 201 207 214 220 221 218 216 215 215 215 214 211 210 211 214 215 215 215 216 215 213 212 213 213 214 214 215 215 214
245 233 224 191 181 188 194 198 198 201 207 210 211 210 210 212 212 215 220 208 202 207 205 195 233 243 243 235 222 220 220 215 199 187 188 195 204 211 215 218 222 224 224 224 223 223 223 224 221 216 213 210 207 205 203 203 203 203 206 213 221 226 224 222 220 217 217 216 215 213 213 215 216 218 218 217 217 216 216 216 217 217 217 218 219 218
230 230 186 158 155 168 176 184 190 195 202 209 213 211 209 212 214 218 223 218 210 210 210 213 233 235 240 240 224 220 221 213 197 188 187 188 196 203 206 209 212 215 219 226 231 229 225 225 225 222 218 215 214 213 211 209 208 208 208 212 219 223 223 223 223 221 218 216 216 215 215 215 216 218 219 219 219 219 218 219 220 220 221 221 222 222
59 255 191 177 172 167 166 170 175 181 188 201 211 210 207 206 207 210 210 203 204 213 214 218 231 239 243 241 225 219 219 213 202 194 191 191 197 201 203 206 209 209 211 215 223 229 229 229 229 228 223 219 219 219 219 217 215 213 211 212 217 221 222 221 220 221 220 219 218 217 217 217 217 218 218 219 221 221 221 222 222 223 224 224 225 224
114 126 175 187 184 172 164 170 175 178 182 189 199 204 206 206 206 209 211 207 208 211 213 221 232 240 240 236 225 219 217 215 208 201 197 197 200 201 202 206 207 207 208 209 213 223 230 230 230 229 227 225 223 223 225 225 220 216 215 216 219 223 226 225 222 221 222 223 222 222 221 221 221 221 220 220 222 223 224 225 225 226 227 227 228 229
124 120 122 139 158 171 176 175 177 183 188 192 192 193 200 206 210 215 220 221 219 216 217 224 231 237 243 248 247 229 219 216 209 202 200 201 203 203 201 202 202 200 206 210 211 217 222 224 226 228 225 224 224 225 226 228 224 221 222 224 226 227 229 229 227 226 226 228 229 227 226 226 226 226 225 223 222 223 226 227 227 229 230 231 232 232
135 121 114 112 116 139 176 184 182 183 189 195 195 192 192 199 207 213 219 225 224 223 229 233 232 239 246 249 249 240 228 218 205 197 197 199 200 199 194 194 195 195 201 206 207 211 216 219 222 225 222 220 222 224 225 227 228 228 228 231 232 232 232 231 231 230 229 231 233 232 230 230 230 230 230 228 226 225 226 227 228 230 231 233 235 236
144 129 121 111 103 103 130 166 183 189 193 196 197 196 195 196 201 207 214 221 221 222 229 236 237 241 244 246 247 242 234 216 198 192 194 195 195 194 190 188 190 192 197 199 199 203 210 213 217 219 218 219 223 226 227 227 229 230 231 235 237 237 237 236 235 234 231 230 233 234 234 234 234 234 235 234 233 231 231 231 231 230 231 233 236 238
160 149 138 124 114 102 100 114 142 170 192 198 194 194 198 197 196 200 205 210 216 218 221 225 230 234 235 234 231 226 225 214 198 191 192 195 196 196 194 193 195 198 200 202 203 203 201 201 206 208 209 214 222 228 230 228 227 229 233 237 240 240 240 239 239 241 239 236 237 236 235 236 236 236 237 238 239 239 238 237 236 235 235 236 237 239
178 168 161 147 132 116 107 108 119 140 167 189 188 186 194 199 200 204 206 206 213 220 220 219 222 228 230 224 214 212 217 214 201 190 189 194 197 200 200 201 203 204 205 209 212 211 204 198 200 202 202 207 215 221 225 225 225 228 232 234 237 239 238 234 235 240 241 239 238 235 234 234 234 234 236 238 241 244 242 241 241 241 240 240 240 242
186 182 183 178 171 153 132 117 114 146 161 174 174 162 183 197 200 205 210 209 210 218 226 225 224 229 232 224 214 209 208 207 199 189 188 194 199 202 204 205 207 207 209 212 214 214 209 201 201 202 201 205 210 212 216 220 221 222 224 228 232 235 235 233 234 238 238 235 234 232 232 233 233 234 236 237 241 244 243 241 242 242 243 243 243 244
191 192 193 196 207 214 187 160 118 145 173 298 336 30 164 199 198 202 211 209 205 209 219 223 224 229 234 228 219 210 199 193 188 180 183 192 199 204 204 204 209 211 208 204 203 209 206 198 199 202 199 204 209 207 207 212 214 215 218 224 230 234 234 232 232 236 237 232 229 228 230 234 236 236 238 239 241 243 243 242 243 244 244 243 243 244
197 194 193 196 204 210 205 205 209 77 144 307 320 331 10 213 204 207 212 207 203 205 206 207 209 216 224 226 221 206 188 180 178 180 186 191 195 201 207 211 210 203 196 188 187 203 205 198 200 196 185 192 202 200 197 200 206 211 214 219 225 228 229 223 213 221 227 225 223 222 223 231 236 236 237 238 239 241 242 242 243 244 244 243 243 244
199 195 191 190 189 183 186 199 212 200 209 269 308 307 258 236 214 214 214 207 205 206 201 199 202 207 210 213 208 195 184 180 180 183 188 191 190 190 198 205 194 180 185 189 187 196 200 201 207 197 176 183 195 195 195 201 211 216 217 216 211 211 220 220 204 204 213 213 214 217 217 223 227 226 228 230 232 235 237 238 240 243 244 244 243 244
203 203 200 194 189 171 152 149 173 199 208 231 257 271 281 268 239 234 241 228 213 209 205 203 207 207 203 202 198 189 182 181 183 185 185 184 180 175 176 179 172 168 179 187 183 182 185 195 206 204 191 191 191 192 200 209 217 223 225 223 211 199 209 218 208 202 206 206 207 210 210 212 214 215 220 226 230 232 232 233 236 239 242 244 244 245
205 208 207 204 202 188 166 142 152 176 176 204 233 256 284 295 303 257 264 264 235 219 218 221 224 216 203 200 196 188 184 186 188 188 183 175 169 166 168 172 173 176 182 186 185 186 188 196 206 209 208 208 200 200 208 213 217 219 219 221 217 206 209 219 218 214 214 211 210 210 208 209 211 213 219 224 228 231 232 232 234 235 237 240 243 246
204 208 209 210 212 202 193 185 173 166 139 136 194 249 289 317 342 305 269 293 265 232 230 241 244 230 211 205 198 191 192 195 194 189 182 173 164 160 162 168 174 181 190 197 200 201 203 209 217 221 224 228 221 211 209 211 214 215 213 212 211 207 211 219 221 221 220 220 220 218 216 217 218 218 222 225 225 227 230 230 230 232 232 234 237 241
188 200 205 211 219 212 205 206 199 174 167 161 174 294 302 314 313 267 283 333 319 254 248 264 270 241 215 212 205 200 202 206 204 195 183 172 161 152 151 157 166 174 183 192 196 198 205 211 213 212 206 204 202 196 196 201 205 207 208 208 205 204 207 208 207 206 207 211 216 218 219 220 220 219 224 227 225 226 229 229 230 231 231 231 233 236
143 163 174 192 208 213 209 209 206 200 215 223 224 248 284 310 247 245 289 327 322 288 263 271 284 256 214 215 216 214 213 212 208 200 189 178 165 151 146 149 157 161 164 168 169 169 177 182 174 166 163 164 167 170 176 186 191 193 196 198 198 199 199 198 198 196 193 194 199 205 209 210 210 212 218 222 222 223 227 229 231 235 237 236 237 239
96 124 119 130 149 165 176 183 187 204 240 249 244 243 244 243 252 287 291 288 283 278 264 262 277 265 219 218 225 223 213 204 201 199 193 182 168 162 159 153 152 156 156 155 155 153 155 158 154 151 149 147 150 157 166 176 183 188 191 192 194 196 197 198 200 199 196 193 193 197 202 204 205 207 210 214 216 217 219 222 226 233 239 242 245 246
62 96 122 120 119 118 113 125 156 181 245 256 252 249 246 243 248 264 279 280 268 258 247 242 252 259 238 225 229 227 216 208 210 210 202 197 205 217 198 167 154 157 158 158 159 158 158 159 157 155 155 155 159 168 178 188 197 204 208 209 210 210 211 213 216 217 218 215 210 208 211 213 216 218 219 220 220 220 220 222 227 234 241 245 248 251
47 80 116 133 137 121 97 103 130 118 79 112 207 239 247 244 243 245 254 268 264 247 234 229 232 243 245 238 237 236 227 220 222 222 218 220 223 217 195 169 159 160 161 162 165 165 164 164 162 163 167 173 182 193 204 215 222 228 231 233 233 234 234 235 238 242 245 247 247 243 239 236 235 236 237 238 239 239 239 240 242 246 250 253 254 255
73 97 109 122 146 145 123 120 141 131 75 61 81 90 255 238 238 238 239 246 252 244 227 219 219 233 245 246 242 239 234 231 231 228 224 219 211 204 198 183 167 160 160 161 164 167 169 170 174 183 197 214 231 245 253 256 256 255 253 251 250 250 250 250 250 251 253 256 259 260 260 258 255 252 251 251 250 252 253 255 256 256 257 257 258 259
155 158 139 118 129 143 151 157 164 165 24 13 359 336 348 235 249 242 232 233 242 248 235 215 208 219 241 248 244 238 236 237 238 231 226 221 210 205 211 202 175 165 165 165 166 171 177 183 195 208 221 234 247 259 268 272 272 271 269 267 264 262 261 260 259 258 257 257 258 260 261 263 264 265 265 264 263 262 262 262 262 262 262 261 261 261
210 199 191 170 132 120 141 174 177 194 276 309 307 288 268 265 278 286 251 233 236 242 241 225 209 211 230 244 246 243 240 238 234 225 223 228 223 210 205 201 190 187 186 180 179 183 189 201 218 228 234 243 257 272 280 281 281 279 276 275 274 272 271 269 267 266 265 264 263 263 263 264 265 267 268 270 271 271 271 270 269 268 268 268 268 267
214 210 209 208 197 186 194 201 207 224 238 265 281 277 272 269 262 266 281 265 242 237 234 225 214 212 223 234 241 245 243 237 229 220 215 218 215 207 203 204 206 209 211 204 198 196 199 211 226 234 241 255 270 282 287 288 288 286 281 278 276 275 274 273 272 271 270 269 269 269 268 268 269 269 269 270 270 271 272 273 273 273 272 272 272 272
225 224 222 225 228 232 239 242 244 246 247 251 259 263 266 267 263 257 258 269 274 259 241 230 221 219 226 233 244 254 252 240 229 224 221 216 210 208 214 219 216 217 221 215 206 204 207 213 225 236 247 262 273 281 287 290 293 292 289 285 280 277 275 275 274 273 273 271 271 270 270 270 270 270 271 271 270 270 270 270 271 272 272 272 272 272
239 240 239 240 244 245 246 249 251 251 249 247 249 255 259 260 262 259 251 250 263 273 269 261 249 242 243 245 252 262 263 253 244 248 255 250 238 242 261 273 269 251 235 219 206 207 217 225 237 247 254 265 274 281 287 292 295 296 294 291 288 284 282 280 279 278 277 275 273 272 270 269 269 269 269 270 270 270 270 269 269 269 270 271 272 272
248 250 253 254 254 253 253 254 255 254 252 250 250 254 257 258 259 260 256 251 252 257 265 271 269 263 261 258 254 255 257 252 244 240 243 252 269 291 297 296 297 279 250 228 210 210 232 249 258 261 264 270 275 281 287 291 294 296 296 294 290 287 286 285 284 283 282 280 278 276 273 271 269 268 268 268 268 269 270 269 269 269 269 270 271 272
Height
3152 3154 3155 3157 3159 3160 3162 3164 3166 3166 3167 3168 3168 3169 3170 3170 3172 3172 3172 3174 3175 3176 3178 3180 3182 3183 3185 3187 3189 3192 3193 3195 3197 3198 3200 3202 3205 3207 3209 3211 3213 3215 3217 3218 3219 3221 3222 3223 3224 3225 3226 3228 3229 3230 3231 3232 3233 3234 3235 3236 3237 3238 3239 3240 3241 3242 3242 3243 3243 3244 3244 3245 3245 3246 3246 3247 3248 3249 3249 3250 3251 3251 3252 3253 3254 3254
3152 3153 3154 3157 3159 3161 3163 3165 3166 3166 3167 3167 3168 3169 3170 3171 3172 3172 3172 3174 3176 3177 3178 3179 3181 3183 3185 3186 3189 3191 3192 3194 3196 3197 3199 3202 3204 3206 3208 3210 3213 3215 3216 3217 3219 3220 3222 3223 3224 3225 3226 3228 3229 3230 3232 3233 3234 3235 3236 3236 3237 3238 3239 3240 3241 3242 3243 3243 3244 3244 3244 3245 3246 3246 3247 3248 3249 3249 3250 3250 3251 3252 3252 3253 3254 3255
3151 3152 3154 3157 3159 3160 3163 3164 3165 3166 3167 3167 3168 3169 3170 3171 3172 3172 3173 3175 3176 3177 3179 3180 3181 3183 3184 3186 3188 3190 3192 3194 3196 3197 3199 3201 3203 3206 3208 3210 3212 3214 3215 3217 3219 3220 3222 3223 3224 3225 3227 3228 3229 3230 3232 3233 3234 3235 3236 3237 3238 3238 3239 3240 3241 3242 3243 3244 3244 3245 3245 3245 3246 3247 3248 3249 3250 3250 3251 3251 3252 3253 3253 3254 3255 3256
3150 3151 3154 3157 3158 3160 3162 3163 3164 3166 3167 3167 3168 3169 3170 3171 3172 3172 3173 3175 3176 3178 3179 3180 3181 3182 3183 3185 3187 3189 3191 3194 3195 3197 3199 3201 3203 3206 3208 3210 3212 3213 3215 3217 3218 3220 3221 3223 3224 3225 3227 3228 3229 3230 3232 3233 3234 3235 3236 3237 3238 3239 3240 3240 3241 3242 3243 3244 3245 3245 3246 3246 3247 3248 3248 3249 3250 3251 3252 3252 3253 3254 3254 3255 3256 3256
3149 3151 3154 3156 3157 3160 3161 3162 3164 3165 3166 3167 3168 3169 3170 3170 3171 3172 3173 3174 3176 3177 3179 3180 3182 3181 3181 3183 3186 3188 3190 3192 3195 3196 3198 3200 3202 3205 3208 3210 3211 3213 3215 3216 3218 3219 3221 3223 3224 3225 3227 3228 3229 3231 3232 3233 3234 3235 3236 3237 3238 3239 3240 3241 3242 3243 3244 3245 3246 3246 3247 3247 3247 3248 3249 3249 3250 3251 3252 3253 3254 3254 3255 3256 3256 3257
3150 3151 3154 3156 3157 3158 3160 3162 3163 3165 3166 3167 3167 3168 3169 3170 3171 3172 3173 3174 3175 3177 3177 3179 3180 3180 3180 3182 3184 3187 3189 3191 3193 3195 3197 3198 3201 3203 3205 3208 3210 3212 3214 3216 3217 3219 3221 3223 3224 3225 3226 3228 3229 3231 3232 3233 3234 3235 3236 3237 3238 3239 3240 3241 3242 3243 3244 3245 3246 3247 3247 3247 3248 3248 3249 3249 3250 3251 3252 3253 3254 3255 3256 3256 3257 3258
3149 3151 3153 3155 3156 3158 3159 3161 3162 3164 3166 3166 3167 3168 3168 3169 3170 3171 3173 3175 3175 3176 3176 3178 3179 3178 3179 3181 3183 3186 3188 3190 3192 3194 3196 3197 3199 3201 3204 3206 3209 3211 3213 3215 3217 3219 3221 3222 3224 3225 3226 3228 3229 3231 3232 3233 3234 3235 3236 3237 3238 3239 3240 3241 3242 3243 3244 3245 3246 3247 3247 3247 3248 3249 3249 3250 3251 3251 3252 3253 3254 3255 3256 3257 3258 3258
3148 3151 3153 3154 3156 3157 3158 3159 3161 3163 3165 3166 3167 3168 3168 3168 3170 3171 3173 3175 3175 3175 3176 3176 3178 3178 3178 3179 3182 3184 3186 3188 3190 3193 3194 3196 3198 3201 3203 3205 3207 3210 3212 3214 3216 3218 3220 3222 3224 3225 3226 3228 3229 3230 3232 3233 3234 3235 3236 3237 3238 3238 3239 3241 3242 3243 3244 3245 3246 3247 3248 3248 3249 3249 3250 3251 3251 3252 3253 3254 3254 3255 3256 3257 3258 3259
3148 3151 3152 3154 3155 3156 3157 3159 3161 3163 3164 3165 3166 3167 3168 3169 3170 3171 3172 3174 3174 3175 3175 3176 3177 3177 3177 3179 3181 3184 3185 3186 3188 3191 3193 3195 3197 3200 3202 3204 3206 3209 3212 3214 3216 3218 3220 3222 3223 3225 3226 3227 3229 3230 3232 3233 3234 3235 3236 3237 3238 3238 3239 3241 3242 3243 3244 3245 3246 3247 3248 3248 3249 3250 3251 3251 3252 3252 3253 3254 3255 3256 3257 3258 3259 3260
3148 3151 3152 3154 3155 3155 3157 3159 3161 3162 3163 3165 3166 3167 3168 3169 3170 3171 3172 3172 3173 3174 3173 3174 3176 3177 3178 3178 3180 3181 3181 3182 3186 3189 3192 3194 3197 3199 3201 3203 3205 3208 3211 3213 3215 3218 3220 3221 3223 3224 3225 3227 3228 3230 3231 3232 3234 3234 3235 3237 3238 3239 3240 3241 3242 3243 3244 3245 3246 3247 3248 3249 3249 3250 3251 3251 3252 3253 3253 3254 3255 3256 3257 3258 3259 3260
3148 3150 3151 3152 3153 3155 3157 3158 3159 3161 3162 3164 3166 3167 3168 3169 3170 3171 3172 3172 3173 3173 3172 3173 3175 3176 3177 3177 3178 3178 3177 3181 3185 3188 3190 3193 3195 3198 3200 3202 3204 3207 3210 3212 3215 3217 3219 3220 3222 3223 3225 3226 3227 3229 3230 3232 3233 3234 3235 3236 3237 3239 3240 3241 3242 3243 3244 3245 3246 3247 3248 3249 3249 3250 3251 3251 3252 3253 3253 3254 3255 3256 3257 3258 3259 3260
3147 3148 3149 3151 3153 3154 3155 3156 3158 3159 3161 3163 3165 3166 3168 3170 3171 3172 3172 3172 3172 3171 3171 3172 3173 3176 3176 3176 3176 3177 3178 3182 3184 3186 3189 3191 3194 3197 3199 3201 3203 3205 3208 3211 3213 3215 3217 3218 3220 3222 3223 3225 3226 3228 3230 3231 3233 3234 3235 3236 3237 3238 3240 3241 3242 3243 3244 3245 3246 3247 3248 3249 3249 3250 3251 3252 3252 3253 3254 3254 3255 3257 3258 3258 3259 3260
3146 3147 3148 3150 3152 3153 3154 3155 3156 3158 3160 3162 3164 3165 3168 3170 3173 3174 3173 3172 3171 3170 3170 3171 3173 3175 3175 3175 3176 3177 3179 3181 3182 3184 3188 3191 3193 3196 3198 3200 3202 3204 3207 3209 3211 3213 3215 3217 3219 3221 3222 3224 3226 3227 3229 3231 3232 3234 3235 3236 3237 3238 3240 3241 3242 3243 3245 3246 3247 3248 3249 3249 3250 3250 3251 3252 3253 3254 3254 3255 3256 3257 3258 3258 3259 3260
3145 3146 3147 3149 3150 3151 3152 3153 3154 3155 3158 3160 3162 3164 3167 3169 3173 3175 3174 3172 3170 3168 3169 3170 3172 3173 3173 3174 3175 3176 3177 3178 3180 3182 3185 3189 3192 3195 3198 3200 3201 3203 3205 3208 3210 3212 3214 3216 3218 3220 3222 3224 3225 3227 3228 3230 3231 3233 3234 3236 3237 3238 3239 3241 3242 3243 3244 3246 3247 3248 3249 3250 3250 3251 3251 3252 3253 3254 3255 3256 3256 3257 3258 3259 3259 3260
3143 3143 3144 3146 3147 3149 3151 3152 3153 3155 3157 3159 3161 3163 3165 3166 3169 3171 3171 3169 3167 3167 3169 3171 3171 3171 3170 3171 3172 3173 3175 3176 3177 3180 3182 3186 3190 3194 3197 3199 3201 3202 3204 3206 3209 3211 3213 3216 3218 3220 3221 3223 3225 3226 3228 3229 3230 3232 3234 3235 3236 3238 3239 3241 3242 3243 3244 3245 3246 3247 3249 3249 3250 3251 3252 3252 3253 3254 3255 3256 3257 3258 3258 3259 3260 3260
3141 3141 3142 3144 3146 3148 3150 3151 3153 3155 3157 3158 3160 3162 3164 3164 3165 3166 3166 3166 3166 3167 3169 3170 3170 3168 3168 3170 3171 3172 3173 3173 3174 3177 3180 3183 3187 3191 3194 3197 3199 3201 3203 3205 3208 3210 3213 3215 3217 3219 3221 3223 3224 3226 3227 3228 3230 3231 3233 3235 3236 3237 3239 3240 3241 3243 3244 3245 3246 3247 3248 3249 3250 3251 3252 3252 3253 3254 3255 3256 3257 3258 3258 3259 3260 3260
3141 3141 3141 3143 3145 3147 3149 3151 3152 3154 3155 3156 3158 3160 3161 3163 3165 3165 3165 3166 3167 3167 3168 3169 3168 3168 3168 3169 3169 3170 3171 3171 3172 3174 3178 3182 3185 3188 3191 3194 3197 3200 3202 3204 3207 3210 3212 3214 3216 3218 3220 3222 3224 3225 3226 3228 3229 3231 3232 3234 3235 3237 3238 3240 3241 3242 3243 3244 3246 3247 3248 3249 3250 3251 3252 3253 3253 3255 3255 3256 3257 3257 3258 3259 3260 3260
3140 3140 3140 3141 3143 3146 3148 3150 3152 3153 3154 3155 3156 3158 3161 3163 3164 3164 3165 3166 3167 3166 3167 3168 3168 3168 3168 3168 3168 3168 3169 3170 3171 3173 3176 3180 3182 3185 3189 3192 3195 3198 3201 3203 3206 3209 3211 3213 3216 3217 3219 3221 3223 3225 3226 3227 3229 3230 3231 3233 3234 3236 3237 3239 3240 3241 3242 3243 3245 3246 3247 3249 3249 3250 3252 3252 3253 3255 3255 3256 3257 3257 3258 3259 3259 3260
3139 3139 3139 3140 3142 3144 3146 3148 3150 3151 3152 3153 3155 3157 3160 3161 3162 3163 3164 3164 3165 3166 3166 3167 3168 3167 3167 3166 3166 3167 3167 3168 3170 3171 3174 3177 3180 3183 3187 3190 3193 3196 3199 3202 3204 3207 3209 3212 3214 3216 3218 3220 3222 3224 3226 3227 3228 3229 3230 3232 3233 3235 3236 3237 3239 3240 3241 3242 3244 3245 3246 3248 3249 3250 3251 3252 3253 3254 3255 3256 3256 3257 3258 3258 3259 3260
3139 3139 3139 3139 3140 3142 3144 3145 3146 3148 3150 3152 3154 3156 3157 3158 3159 3161 3161 3161 3162 3164 3165 3166 3167 3166 3164 3165 3165 3166 3167 3167 3169 3170 3172 3175 3179 3182 3185 3188 3191 3194 3197 3200 3202 3205 3207 3210 3213 3215 3217 3219 3221 3223 3224 3226 3227 3228 3229 3231 3232 3233 3235 3236 3238 3239 3240 3241 3243 3244 3245 3247 3248 3249 3250 3251 3252 3253 3254 3255 3256 3257 3257 3258 3259 3259
3138 3138 3138 3138 3139 3140 3141 3142 3144 3146 3148 3150 3152 3152 3154 3156 3158 3159 3160 3160 3160 3162 3163 3165 3165 3163 3162 3163 3164 3165 3166 3167 3168 3170 3172 3175 3178 3181 3183 3186 3189 3192 3195 3198 3200 3203 3206 3208 3211 3213 3216 3218 3219 3221 3223 3224 3226 3227 3228 3230 3231 3232 3234 3235 3237 3238 3239 3240 3242 3243 3244 3246 3247 3248 3249 3250 3251 3252 3253 3254 3255 3256 3257 3258 3259 3259
3137 3137 3137 3137 3138 3139 3139 3140 3143 3145 3146 3148 3149 3150 3152 3155 3156 3157 3158 3159 3160 3161 3162 3163 3162 3161 3161 3162 3163 3164 3166 3167 3168 3170 3172 3174 3177 3179 3182 3184 3187 3190 3193 3196 3198 3201 3204 3206 3209 3212 3214 3216 3218 3219 3221 3222 3224 3226 3227 3228 3230 3231 3232 3234 3235 3237 3238 3239 3240 3241 3243 3244 3245 3246 3247 3249 3250 3251 3252 3253 3254 3255 3256 3257 3258 3259
3136 3136 3136 3136 3137 3137 3138 3140 3142 3143 3145 3147 3147 3149 3151 3153 3154 3154 3155 3157 3159 3160 3161 3162 3161 3160 3161 3162 3163 3164 3165 3166 3168 3170 3172 3174 3176 3179 3181 3183 3186 3189 3191 3194 3197 3199 3201 3204 3206 3209 3212 3214 3216 3218 3219 3221 3222 3224 3226 3227 3228 3230 3231 3233 3234 3236 3237 3238 3239 3240 3241 3243 3244 3245 3246 3247 3248 3250 3251 3252 3252 3253 3254 3255 3256 3258
3136 3135 3135 3136 3136 3137 3138 3139 3141 3142 3143 3145 3146 3147 3149 3150 3152 3153 3154 3156 3158 3159 3160 3161 3160 3159 3160 3161 3162 3163 3164 3165 3168 3170 3171 3173 3175 3177 3180 3182 3184 3187 3189 3192 3194 3196 3199 3201 3203 3206 3209 3212 3214 3216 3218 3219 3221 3223 3224 3226 3227 3229 3230 3231 3233 3234 3235 3237 3238 3239 3240 3241 3242 3243 3245 3246 3247 3248 3249 3250 3251 3252 3253 3254 3255 3256
3135 3135 3135 3135 3135 3137 3138 3138 3139 3140 3142 3143 3144 3145 3147 3149 3150 3152 3154 3155 3156 3156 3158 3159 3158 3158 3159 3160 3161 3162 3163 3165 3167 3168 3170 3172 3174 3176 3178 3180 3182 3185 3187 3190 3192 3194 3196 3198 3200 3203 3206 3209 3212 3214 3216 3218 3219 3221 3222 3224 3226 3227 3228 3230 3231 3232 3233 3235 3236 3237 3238 3239 3240 3241 3243 3244 3245 3246 3247 3248 3249 3250 3251 3252 3253 3254
3135 3134 3135 3134 3134 3135 3136 3136 3137 3139 3141 3142 3143 3144 3146 3148 3150 3151 3153 3154 3154 3155 3157 3157 3157 3157 3159 3159 3160 3161 3162 3164 3165 3167 3169 3171 3173 3174 3176 3178 3180 3182 3185 3188 3190 3192 3193 3195 3198 3200 3203 3207 3209 3211 3213 3215 3217 3218 3220 3221 3223 3224 3225 3226 3228 3229 3231 3232 3233 3235 3236 3237 3238 3239 3241 3242 3243 3244 3245 3246 3247 3249 3250 3251 3252 3252
3135 3135 3134 3134 3134 3134 3134 3135 3137 3139 3140 3141 3142 3144 3146 3147 3149 3151 3152 3152 3153 3154 3156 3156 3157 3158 3158 3159 3159 3160 3161 3162 3164 3166 3168 3170 3171 3173 3175 3176 3178 3181 3183 3186 3188 3190 3191 3193 3195 3198 3201 3204 3206 3208 3210 3211 3214 3215 3217 3219 3220 3221 3222 3223 3225 3226 3228 3229 3231 3232 3234 3235 3237 3238 3239 3240 3241 3243 3244 3245 3246 3247 3248 3249 3250 3251
3135 3135 3135 3135 3135 3135 3135 3136 3137 3138 3140 3141 3142 3144 3145 3147 3148 3150 3150 3151 3152 3154 3154 3155 3156 3157 3158 3158 3159 3159 3160 3161 3163 3165 3167 3169 3171 3172 3174 3176 3178 3180 3182 3184 3186 3187 3189 3191 3193 3195 3198 3200 3202 3204 3206 3208 3211 3213 3215 3216 3217 3218 3219 3221 3223 3225 3226 3228 3229 3230 3232 3234 3235 3236 3237 3239 3240 3241 3242 3243 3244 3245 3246 3247 3248 3249
3136 3135 3135 3135 3135 3136 3136 3136 3137 3138 3139 3140 3142 3143 3145 3146 3147 3148 3149 3150 3151 3152 3153 3154 3156 3156 3157 3158 3158 3159 3159 3160 3162 3165 3167 3169 3170 3172 3174 3175 3177 3179 3180 3182 3184 3186 3187 3188 3190 3192 3194 3196 3198 3200 3203 3206 3208 3210 3211 3212 3213 3214 3215 3218 3222 3223 3224 3226 3227 3228 3230 3232 3233 3234 3235 3237 3238 3239 3240 3241 3241 3242 3244 3245 3246 3247
3136 3136 3136 3136 3137 3137 3137 3137 3137 3138 3139 3140 3141 3142 3144 3145 3146 3147 3148 3149 3150 3151 3152 3154 3155 3156 3157 3158 3158 3158 3159 3160 3162 3164 3166 3168 3170 3171 3173 3175 3176 3178 3179 3180 3182 3184 3185 3186 3188 3189 3191 3193 3194 3196 3199 3202 3205 3207 3208 3209 3210 3211 3214 3218 3220 3219 3220 3222 3225 3226 3228 3229 3230 3231 3233 3234 3236 3237 3238 3239 3239 3240 3241 3242 3243 3245
3136 3137 3137 3137 3138 3138 3138 3138 3138 3139 3140 3140 3141 3142 3143 3144 3145 3146 3148 3149 3150 3150 3151 3153 3154 3154 3155 3157 3157 3158 3158 3159 3161 3163 3165 3167 3169 3171 3172 3173 3175 3176 3178 3179 3180 3182 3183 3184 3185 3187 3189 3190 3191 3193 3196 3199 3202 3204 3205 3206 3206 3208 3212 3217 3218 3215 3215 3219 3222 3224 3225 3226 3227 3229 3230 3231 3233 3234 3235 3236 3237 3238 3239 3240 3241 3242
3136 3137 3137 3137 3138 3139 3139 3139 3140 3140 3141 3141 3141 3142 3142 3143 3145 3146 3147 3148 3149 3150 3151 3151 3152 3153 3154 3155 3156 3157 3157 3158 3160 3162 3164 3166 3168 3170 3171 3173 3174 3175 3177 3178 3179 3180 3181 3183 3184 3185 3186 3188 3189 3190 3193 3196 3198 3200 3202 3202 3203 3205 3210 3214 3214 3213 3213 3216 3219 3221 3222 3223 3224 3226 3227 3228 3230 3231 3232 3233 3234 3236 3237 3237 3238 3239
3135 3136 3136 3137 3138 3139 3139 3140 3141 3141 3141 3142 3142 3142 3142 3143 3144 3145 3145 3146 3147 3149 3150 3150 3151 3152 3153 3154 3155 3155 3156 3157 3159 3162 3164 3166 3167 3169 3170 3172 3173 3174 3175 3176 3177 3178 3179 3181 3182 3183 3184 3186 3187 3189 3191 3193 3195 3198 3199 3199 3200 3202 3206 3209 3210 3210 3211 3214 3216 3217 3219 3219 3220 3222 3223 3225 3227 3228 3229 3230 3231 3233 3234 3234 3235 3236
3134 3135 3135 3137 3138 3139 3140 3140 3141 3142 3142 3143 3143 3143 3143 3143 3143 3144 3144 3145 3146 3147 3148 3150 3151 3151 3152 3152 3153 3154 3155 3157 3160 3162 3164 3166 3167 3169 3170 3171 3172 3173 3174 3175 3176 3177 3178 3179 3180 3181 3182 3184 3186 3187 3189 3191 3193 3196 3197 3197 3198 3200 3202 3204 3206 3207 3209 3211 3212 3214 3215 3216 3218 3219 3220 3222 3224 3225 3226 3227 3228 3230 3231 3231 3232 3233
3134 3134 3135 3137 3138 3139 3139 3141 3142 3142 3143 3143 3143 3143 3143 3143 3143 3143 3144 3144 3145 3146 3147 3148 3149 3150 3150 3151 3153 3154 3155 3157 3159 3161 3163 3165 3166 3168 3169 3170 3171 3172 3173 3174 3175 3176 3177 3179 3180 3180 3181 3183 3184 3184 3185 3187 3191 3194 3195 3197 3198 3199 3200 3202 3204 3206 3207 3208 3209 3211 3212 3213 3214 3216 3217 3219 3220 3221 3222 3223 3225 3226 3227 3228 3228 3229
3133 3134 3135 3136 3138 3138 3138 3140 3141 3142 3142 3142 3143 3143 3142 3142 3143 3143 3143 3144 3145 3146 3146 3147 3148 3148 3149 3150 3151 3153 3155 3156 3158 3160 3162 3163 3165 3166 3168 3169 3170 3171 3172 3173 3175 3176 3177 3179 3179 3180 3182 3183 3183 3183 3184 3186 3189 3192 3194 3196 3196 3197 3199 3200 3202 3204 3205 3206 3207 3208 3209 3210 3211 3212 3214 3215 3217 3217 3218 3219 3221 3222 3224 3224 3225 3225
3132 3133 3134 3135 3136 3136 3137 3138 3140 3140 3141 3142 3143 3143 3143 3142 3143 3143 3143 3144 3145 3146 3146 3146 3146 3147 3147 3148 3150 3151 3154 3156 3157 3159 3160 3162 3163 3165 3166 3168 3169 3171 3172 3173 3175 3176 3178 3179 3179 3179 3182 3183 3184 3185 3186 3187 3189 3190 3192 3194 3194 3195 3197 3199 3201 3203 3204 3205 3206 3207 3208 3209 3209 3210 3212 3213 3214 3215 3215 3216 3217 3218 3220 3221 3222 3222
3132 3132 3133 3134 3135 3136 3137 3138 3139 3140 3141 3141 3142 3143 3143 3143 3143 3143 3143 3144 3145 3145 3146 3146 3146 3146 3147 3147 3149 3150 3152 3154 3155 3157 3158 3160 3162 3164 3165 3167 3169 3170 3172 3173 3174 3176 3177 3178 3178 3179 3181 3183 3184 3186 3187 3188 3189 3190 3191 3192 3193 3194 3196 3197 3199 3201 3202 3203 3204 3205 3206 3207 3208 3209 3210 3211 3212 3212 3213 3213 3214 3215 3217 3218 3219 3220
3131 3132 3133 3134 3135 3136 3137 3138 3139 3139 3140 3141 3141 3142 3143 3143 3143 3143 3144 3144 3145 3145 3146 3146 3146 3146 3147 3148 3149 3150 3151 3152 3153 3155 3157 3159 3161 3162 3164 3166 3168 3169 3171 3171 3173 3175 3176 3177 3177 3179 3180 3182 3183 3185 3187 3188 3189 3189 3190 3191 3192 3193 3194 3196 3197 3198 3199 3201 3202 3203 3204 3205 3206 3207 3208 3209 3210 3211 3211 3212 3212 3213 3214 3215 3217 3218
3131 3132 3133 3133 3134 3136 3137 3138 3138 3139 3140 3140 3141 3141 3142 3143 3144 3144 3144 3144 3145 3145 3146 3146 3147 3147 3147 3148 3150 3150 3151 3152 3153 3155 3157 3158 3160 3162 3163 3165 3167 3168 3170 3171 3172 3174 3175 3176 3177 3178 3180 3181 3183 3184 3186 3187 3188 3189 3189 3190 3191 3192 3193 3194 3195 3196 3197 3198 3200 3201 3202 3203 3204 3205 3206 3207 3208 3209 3210 3210 3210 3211 3212 3213 3214 3216
3132 3132 3133 3133 3134 3135 3136 3137 3138 3139 3139 3140 3140 3141 3142 3143 3144 3145 3145 3145 3145 3145 3146 3146 3147 3148 3148 3149 3150 3151 3152 3154 3155 3157 3158 3160 3161 3162 3163 3165 3166 3167 3169 3170 3171 3173 3175 3176 3177 3178 3180 3181 3182 3184 3185 3186 3187 3188 3189 3190 3191 3192 3193 3193 3194 3195 3196 3197 3198 3199 3200 3201 3202 3203 3204 3205 3206 3207 3208 3208 3209 3209 3210 3210 3211 3213
3132 3133 3133 3134 3134 3135 3136 3137 3138 3139 3139 3140 3140 3140 3141 3142 3144 3145 3146 3145 3145 3145 3146 3146 3147 3148 3148 3149 3150 3150 3152 3154 3156 3157 3158 3160 3161 3163 3164 3165 3166 3167 3168 3169 3170 3172 3174 3176 3177 3178 3179 3181 3182 3184 3185 3186 3187 3187 3188 3189 3190 3191 3191 3192 3193 3194 3195 3196 3197 3198 3199 3200 3201 3202 3203 3203 3204 3205 3206 3207 3207 3207 3208 3208 3209 3209
3133 3133 3134 3134 3135 3135 3136 3137 3137 3138 3139 3139 3140 3140 3140 3141 3142 3143 3144 3145 3145 3146 3146 3146 3147 3148 3149 3149 3149 3150 3152 3154 3155 3157 3158 3160 3161 3163 3164 3165 3165 3167 3168 3169 3170 3172 3174 3175 3177 3177 3179 3180 3182 3183 3184 3185 3186 3187 3188 3188 3189 3190 3190 3191 3192 3193 3194 3195 3196 3197 3198 3199 3200 3200 3201 3202 3203 3204 3204 3205 3205 3206 3206 3207 3207 3208
3134 3134 3134 3135 3135 3136 3136 3137 3138 3138 3139 3139 3139 3139 3139 3140 3140 3142 3143 3145 3145 3146 3146 3146 3147 3147 3148 3149 3149 3150 3152 3154 3155 3156 3158 3158 3159 3161 3162 3163 3164 3166 3168 3169 3170 3172 3173 3174 3175 3176 3178 3179 3181 3182 3183 3184 3185 3186 3187 3188 3188 3189 3189 3190 3191 3191 3192 3193 3194 3196 3197 3198 3198 3199 3200 3200 3201 3202 3203 3203 3204 3205 3205 3206 3206 3207
3135 3135 3135 3135 3136 3136 3137 3137 3138 3138 3139 3139 3139 3139 3139 3139 3140 3141 3142 3144 3145 3146 3145 3145 3146 3147 3147 3148 3149 3149 3150 3152 3153 3155 3156 3157 3158 3160 3162 3162 3164 3165 3167 3168 3170 3171 3172 3173 3174 3174 3175 3177 3178 3180 3181 3182 3183 3185 3185 3186 3187 3187 3188 3189 3189 3190 3191 3192 3193 3194 3195 3196 3196 3197 3198 3199 3199 3200 3201 3202 3202 3203 3204 3204 3205 3205
3135 3135 3135 3136 3136 3137 3137 3138 3138 3138 3139 3139 3139 3139 3140 3140 3140 3140 3141 3143 3144 3145 3145 3144 3145 3145 3146 3147 3146 3146 3147 3148 3149 3151 3154 3155 3156 3158 3160 3162 3163 3164 3166 3167 3169 3170 3171 3172 3173 3173 3174 3174 3175 3177 3178 3180 3181 3182 3183 3184 3185 3186 3186 3187 3188 3189 3190 3190 3191 3192 3193 3193 3194 3195 3195 3196 3197 3198 3199 3200 3200 3201 3201 3202 3203 3203
3135 3135 3136 3136 3137 3137 3137 3138 3138 3139 3139 3139 3139 3139 3140 3140 3140 3141 3141 3142 3142 3143 3144 3144 3143 3144 3145 3145 3145 3145 3146 3146 3147 3148 3151 3153 3154 3156 3158 3160 3162 3163 3164 3165 3166 3168 3170 3171 3171 3172 3172 3173 3174 3175 3176 3177 3178 3180 3181 3181 3182 3183 3184 3185 3185 3186 3187 3188 3189 3190 3190 3191 3192 3192 3193 3193 3194 3195 3196 3197 3197 3198 3198 3199 3199 3200
3135 3135 3136 3136 3137 3137 3137 3138 3138 3139 3139 3139 3139 3139 3139 3140 3140 3140 3141 3141 3141 3142 3142 3142 3142 3142 3142 3144 3144 3143 3143 3145 3146 3146 3147 3149 3151 3153 3155 3157 3159 3160 3161 3163 3164 3165 3167 3168 3169 3170 3171 3172 3172 3173 3174 3175 3176 3177 3178 3179 3180 3180 3181 3182 3182 3183 3184 3185 3185 3186 3187 3188 3188 3189 3190 3190 3191 3192 3192 3193 3193 3193 3194 3195 3195 3195
3134 3135 3135 3136 3136 3137 3137 3137 3137 3138 3138 3138 3139 3138 3138 3139 3139 3140 3140 3140 3141 3141 3141 3141 3141 3141 3141 3142 3143 3142 3142 3144 3146 3146 3146 3148 3149 3151 3152 3153 3154 3156 3159 3161 3162 3163 3164 3165 3166 3168 3168 3169 3170 3171 3171 3173 3174 3175 3175 3176 3177 3178 3178 3179 3179 3180 3180 3181 3182 3182 3183 3184 3184 3185 3186 3186 3187 3188 3188 3189 3189 3189 3189 3189 3190 3190
3133 3134 3134 3135 3135 3136 3136 3136 3137 3137 3137 3137 3137 3137 3137 3137 3138 3138 3139 3139 3140 3140 3140 3140 3140 3140 3140 3141 3142 3142 3142 3145 3147 3148 3148 3150 3151 3151 3151 3151 3152 3154 3156 3158 3159 3160 3162 3163 3164 3165 3166 3166 3167 3167 3168 3169 3170 3171 3172 3173 3173 3174 3175 3175 3176 3176 3177 3177 3178 3178 3179 3180 3180 3181 3181 3181 3182 3182 3183 3184 3185 3185 3184 3184 3184 3184
3132 3132 3133 3134 3134 3134 3135 3135 3135 3136 3136 3136 3136 3136 3136 3136 3136 3137 3137 3138 3139 3139 3140 3140 3140 3140 3140 3140 3141 3142 3142 3144 3146 3147 3147 3149 3149 3150 3150 3151 3153 3154 3156 3157 3158 3158 3160 3161 3162 3162 3163 3163 3164 3165 3166 3166 3167 3168 3169 3169 3170 3170 3171 3172 3172 3173 3173 3174 3174 3175 3175 3176 3176 3176 3177 3177 3177 3177 3178 3178 3179 3180 3180 3180 3180 3180